Diretta Meteo Treviso-S Angelo, Italiamartedì 23 luglio ore 04:50

Mappa
Sereno 24 °C Poco Nuvoloso 24 Ore: T.min 23 T.max 33
Ponente Nord Km/h 5.5 Punto di rugiada: 20 °C Umidità: 78% Visibilità: 10 Km
Il sole sorge alle: 05:43 Il sole tramonta alle: 20:52
23 Luglio 2019 04:50 tempo osservato: Poco Nuvoloso Poco Nuvoloso 24 78 1019 vento: Nord N 5.5
23 Luglio 2019 04:20 tempo osservato: Poco Nuvoloso Poco Nuvoloso 24 78 1019 vento: Nord N 3.7
23 Luglio 2019 03:50 tempo osservato: Molto Nuvoloso Molto Nuvoloso 24 83 1019 vento: Nord N 3.7
23 Luglio 2019 03:20 tempo osservato: Molto Nuvoloso Molto Nuvoloso 24 83 1019 vento: Nord N 0
23 Luglio 2019 02:50 tempo osservato: Sereno Sereno 24 83 1019 vento: Nord N 1.8
23 Luglio 2019 02:20 tempo osservato: Poco Nuvoloso Poco Nuvoloso 24 78 1020 vento: Nord N 1.8
23 Luglio 2019 01:50 tempo osservato: Molto Nuvoloso Molto Nuvoloso 25 78 1020 vento: Nord N 3.7
23 Luglio 2019 01:20 tempo osservato: Molto Nuvoloso Molto Nuvoloso 24 83 1020 vento: Nord N 5.5
23 Luglio 2019 00:50 tempo osservato: Sereno Sereno 25 73 1020 vento: Nord N 1.8
23 Luglio 2019 00:20 tempo osservato: Sereno Sereno 25 73 1020 vento: Nord N 1.8
22 Luglio 2019 23:50 tempo osservato: Sereno Sereno 26 69 1020 vento: Nord N 1.8
22 Luglio 2019 23:20 tempo osservato: Sereno Sereno 25 73 1020 vento: Nord N 1.8
22 Luglio 2019 22:50 tempo osservato: Sereno Sereno 26 65 1020 vento: Nord N 1.8
22 Luglio 2019 22:20 tempo osservato: Sereno Sereno 27 61 1019 vento: Nord N 1.8
22 Luglio 2019 21:50 tempo osservato: Sereno Sereno 27 61 1019 vento: Nord N 1.8
22 Luglio 2019 21:20 tempo osservato: Sereno Sereno 28 58 1019 vento: Nord N 1.8
22 Luglio 2019 20:50 tempo osservato: Sereno Sereno 29 54 1019 vento: Nord N 5.5
22 Luglio 2019 20:20 tempo osservato: Sereno Sereno 31 43 1019 vento: Nord E/SE 7.4
22 Luglio 2019 19:50 tempo osservato: Sereno Sereno 31 45 1019 vento: Nord N 5.5
22 Luglio 2019 19:20 tempo osservato: Sereno Sereno 31 43 1019 vento: Nord SE 7.4
22 Luglio 2019 18:50 tempo osservato: Sereno Sereno 32 40 1019 vento: Nord SE 9.3
22 Luglio 2019 18:20 tempo osservato: Sereno Sereno 32 43 1019 vento: Nord E/SE 9.3
22 Luglio 2019 17:50 tempo osservato: Sereno Sereno 32 43 1019 vento: Nord E/SE 9.3
22 Luglio 2019 17:20 tempo osservato: Sereno Sereno 33 41 1019 vento: Nord N 5.5
22 Luglio 2019 16:50 tempo osservato: Sereno Sereno 33 43 1020 vento: Nord E/SE 7.4
22 Luglio 2019 16:20 tempo osservato: Sereno Sereno 33 43 1020 vento: Nord E/SE 9.3
22 Luglio 2019 15:50 tempo osservato: Sereno Sereno 33 46 1020 vento: Nord E 7.4
22 Luglio 2019 15:20 tempo osservato: Sereno Sereno 33 41 1020 vento: Nord N 5.5
22 Luglio 2019 14:50 tempo osservato: Sereno Sereno 33 43 1020 vento: Nord N 7.4
22 Luglio 2019 14:20 tempo osservato: Sereno Sereno 33 43 1020 vento: Nord N 5.5
22 Luglio 2019 13:50 tempo osservato: Sereno Sereno 32 46 1021 vento: Nord E 9.3
22 Luglio 2019 13:20 tempo osservato: Sereno Sereno 32 40 1021 vento: Nord N 9.3
22 Luglio 2019 12:50 tempo osservato: Sereno Sereno 32 43 1021 vento: Nord E 9.3
22 Luglio 2019 12:20 tempo osservato: Sereno Sereno 32 46 1021 vento: Nord N 3.7
22 Luglio 2019 11:50 tempo osservato: Sereno Sereno 30 48 1021 vento: Nord N 7.4
22 Luglio 2019 11:20 tempo osservato: Sereno Sereno 30 55 1021 vento: Nord N 5.5
22 Luglio 2019 10:50 tempo osservato: Sereno Sereno 29 54 1021 vento: Nord N 7.4
22 Luglio 2019 10:20 tempo osservato: Sereno Sereno 29 54 1021 vento: Nord NE 9.3
22 Luglio 2019 09:50 tempo osservato: Sereno Sereno 28 58 1021 vento: Nord NE 11.1
22 Luglio 2019 09:20 tempo osservato: Sereno Sereno 27 61 1021 vento: Nord NE 9.3
22 Luglio 2019 08:50 tempo osservato: Sereno Sereno 27 69 1021 vento: Nord N 5.5
22 Luglio 2019 08:20 tempo osservato: Sereno Sereno 25 73 1021 vento: Nord N/NE 11.1
22 Luglio 2019 07:50 tempo osservato: Sereno Sereno 24 83 1021 vento: Nord NE 9.3
22 Luglio 2019 07:20 tempo osservato: Sereno Sereno 25 78 1021 vento: Nord N 3.7
22 Luglio 2019 06:50 tempo osservato: Sereno Sereno 24 83 1021 vento: Nord N 3.7
22 Luglio 2019 06:20 tempo osservato: Sereno Sereno 23 88 1021 vento: Nord N 1.8
22 Luglio 2019 05:50 tempo osservato: Sereno Sereno 23 88 1021 vento: Nord N 3.7